Location: Baili�vre
(50.0696°N, 4.2409°E)
Time: 04:33:44
(UTC+00:00)

Thor Agena Rocket - Pass Details

Date: 08 August 2020
Orbit: 760 x 807 km, 99.0° (Epoch: 23 September)

Event Time Altitude Azimuth Distance (km) Brightness Sun altitude
Rises 22:48:32 0° 15° (NNE) 3,239 7.7 -22.8°
Reaches altitude 10° 22:50:50 10° 16° (NNE) 2,311 6.8 -22.9°
Maximum altitude 22:55:56 88° 103° (ESE) 776 3.4 -23.1°
Enters shadow 22:57:01 58° 194° (SSW) 901 3.5 -23.2°
